DW7854 Weather Reports


Display with metric or nautical units.
time (UTC)temp
F
wind
direction
speed
MPH
gust
MPH
rain 1hr
in
rain 24hr
in
rain mn
in
humidity
%
barometer
mb
20260506061732 75 154 0.0 2.0 0.00 0.00 0.00 88 1005.3
20260506061604 74 155 0.0 2.0 0.00 0.00 0.00 88 1005.2
20260506050532 74 177 2.0 4.0 0.00 0.00 0.00 88 1005.1
20260506050108 74 160 1.0 4.0 0.00 0.00 0.00 88 1005.0
20260506044604 74 187 0.0 1.0 0.00 0.00 0.00 87 1005.1
20260506043832 75 188 0.0 2.0 0.00 0.00 0.00 87 1005.1
20260506043005 74 187 0.0 2.0 0.00 0.00 0.00 87 1005.0
20260506042932 74 241 0.0 2.0 0.00 0.00 0.00 87 1005.0
20260506042032 74 190 1.0 4.0 0.00 0.00 0.00 87 1005.3
20260506041508 74 185 0.0 4.0 0.00 0.00 0.00 87 1004.4
20260506041132 75 149 0.0 4.0 0.00 0.00 0.00 87 1004.5
20260506040232 75 184 0.0 2.0 0.00 0.00 0.00 87 1005.1
20260506040002 74 183 0.0 2.0 0.00 0.00 0.00 87 1005.1
20260506035332 75 194 0.0 3.0 0.00 0.00 0.00 87 1005.1
20260506034517 74 183 0.0 2.0 0.00 0.00 0.00 87 1005.2
20260506034432 75 165 0.0 2.0 0.00 0.00 0.00 87 1005.1
20260506033532 75 151 0.0 1.0 0.00 0.00 0.00 86 1004.7
20260506033105 75 151 0.0 1.0 0.00 0.00 0.00 86 1004.3
20260506032632 75 151 0.0 2.0 0.00 0.00 0.00 85 1004.6
20260506031732 75 151 0.0 2.0 0.00 0.00 0.00 85 1004.7
20260506031609 75 151 0.0 2.0 0.00 0.00 0.00 85 1004.7
20260506030832 76 170 0.0 1.0 0.00 0.00 0.00 85 1004.6
20260506030104 75 215 0.0 1.0 0.00 0.00 0.00 85 1004.6
20260506025032 76 212 0.0 2.0 0.00 0.00 0.00 84 1004.6
20260506024510 76 192 0.0 1.0 0.00 0.00 0.00 84 1004.0
20260506024132 76 193 0.0 1.0 0.00 0.00 0.00 84 1003.8
20260506023232 76 193 0.0 2.0 0.00 0.00 0.00 83 1004.0
20260506023102 76 192 0.0 2.0 0.00 0.00 0.00 83 1004.0
20260506022332 76 193 0.0 2.0 0.00 0.00 0.00 83 1004.0
20260506021604 76 192 0.0 4.0 0.00 0.00 0.00 83 1003.9
20260506021432 76 184 2.0 4.0 0.00 0.00 0.00 83 1003.9
20260506020008 76 188 2.0 5.0 0.00 0.00 0.00 84 1003.9
20260506015632 76 179 2.0 6.0 0.00 0.00 0.00 83 1003.9
20260506014732 77 156 1.0 4.0 0.00 0.00 0.00 83 1003.8
20260506014602 76 180 1.0 3.0 0.00 0.00 0.00 83 1003.7
20260506013832 77 157 0.0 2.0 0.00 0.00 0.00 82 1003.7
20260506013111 77 157 0.0 3.0 0.00 0.00 0.00 82 1003.9
20260506012932 78 166 1.0 3.0 0.00 0.00 0.00 82 1004.0
20260506011611 78 229 0.0 0.0 0.00 0.00 0.00 81 1003.7
20260506010232 79 0 0.0 0.0 0.00 0.00 0.00 80 1003.9
20260506010010 79 229 0.0 0.0 0.00 0.00 0.00 79 1003.8
20260506005332 79 235 0.0 2.0 0.00 0.00 0.00 78 1003.8
20260506004504 79 244 0.0 2.0 0.00 0.00 0.00 78 1003.7
20260506004432 80 215 0.0 2.0 0.00 0.00 0.00 78 1003.6
20260506003532 80 134 0.0 1.0 0.00 0.00 0.00 78 1003.1
20260506003105 80 134 0.0 0.0 0.00 0.00 0.00 78 1003.2
20260506002632 81 134 0.0 1.0 0.00 0.00 0.00 76 1003.4
20260506001732 81 134 0.0 2.0 0.00 0.00 0.00 76 1003.2
20260506001505 80 134 0.0 2.0 0.00 0.00 0.00 75 1003.2
20260506000832 81 154 0.0 1.0 0.00 0.00 0.00 75 1003.5
20260506000005 81 173 0.0 2.0 0.00 0.00 0.00 75 1003.4
20260505235932 81 200 0.0 2.0 0.00 0.00 0.00 75 1003.5
20260505235032 81 183 2.0 4.0 0.00 0.00 0.00 74 1003.5
20260505234507 81 213 1.0 6.0 0.00 0.00 0.00 73 1003.4
20260505234132 82 184 3.0 6.0 0.00 0.00 0.00 73 1003.3
20260505233232 82 175 3.0 7.0 0.00 0.00 0.00 73 1003.0
20260505233004 81 188 2.0 7.0 0.00 0.00 0.00 73 1003.1
20260505232332 82 185 3.0 9.0 0.00 0.00 0.00 72 1003.0
20260505231504 82 200 1.0 4.0 0.00 0.00 0.00 73 1003.0
20260505231432 82 183 2.0 4.0 0.00 0.00 0.00 73 1003.0
20260505230532 83 187 1.0 5.0 0.00 0.00 0.00 72 1002.9
20260505230007 83 184 1.0 6.0 0.00 0.00 0.00 72 1002.9
20260505225632 83 187 0.0 2.0 0.00 0.00 0.00 72 1002.9
20260505224732 83 177 1.0 4.0 0.00 0.00 0.00 71 1003.0
20260505224509 83 212 0.0 4.0 0.00 0.00 0.00 71 1002.9
20260505223832 83 184 0.0 1.0 0.00 0.00 0.00 72 1003.0
20260505223004 83 239 0.0 3.0 0.00 0.00 0.00 71 1003.0
20260505222932 83 195 0.0 3.0 0.00 0.00 0.00 70 1002.9
20260505222032 83 191 1.0 3.0 0.00 0.00 0.00 71 1002.8
20260505221502 83 180 0.0 6.0 0.00 0.00 0.00 71 1002.9
20260505221132 83 193 2.0 6.0 0.00 0.00 0.00 71 1002.9
20260505220232 83 195 3.0 6.0 0.00 0.00 0.00 70 1003.1
20260505220003 83 193 2.0 9.0 0.00 0.00 0.00 70 1003.2
20260505215332 83 211 3.0 10.0 0.00 0.00 0.00 70 1003.4
20260505214606 83 209 3.0 9.0 0.00 0.00 0.00 71 1003.5
20260505214432 83 203 3.0 6.0 0.00 0.00 0.00 71 1003.5
20260505213532 83 190 2.0 6.0 0.00 0.00 0.00 71 1003.2
20260505213103 82 207 2.0 5.0 0.00 0.00 0.00 70 1003.3
20260505212632 83 189 2.0 7.0 0.00 0.00 0.00 71 1003.3
20260505211605 82 247 1.0 9.0 0.00 0.00 0.00 71 1003.4
20260505210831 82 177 3.0 10.0 0.00 0.00 0.00 72 1003.5
20260505210004 81 170 1.0 7.0 0.00 0.00 0.00 75 1003.4
20260505205932 82 179 3.0 8.0 0.00 0.00 0.00 75 1003.3
20260505205032 81 169 4.0 9.0 0.00 0.00 0.00 72 1003.1
20260505204506 81 200 4.0 7.0 0.00 0.00 0.00 71 1003.4
20260505204132 82 186 4.0 8.0 0.00 0.00 0.00 71 1003.5
20260505203232 82 189 3.0 8.0 0.00 0.00 0.00 70 1003.5
20260505203005 81 237 2.0 6.0 0.00 0.00 0.00 69 1003.5
20260505202332 82 175 5.0 9.0 0.00 0.00 0.00 70 1003.7
20260505201508 82 194 5.0 11.0 0.00 0.00 0.00 69 1003.6
20260505201432 82 185 6.0 12.0 0.00 0.00 0.00 71 1003.6
20260505200531 83 177 6.0 11.0 0.00 0.00 0.00 69 1003.5
20260505200011 83 158 6.0 11.0 0.00 0.00 0.00 70 1003.6
20260505194732 83 174 4.0 11.0 0.00 0.00 0.00 71 1003.7
20260505194615 82 170 5.0 8.0 0.00 0.00 0.00 73 1003.7
20260505193832 81 171 5.0 11.0 0.00 0.00 0.00 75 1004.0
20260505193105 80 118 5.0 11.0 0.00 0.00 0.00 75 1004.3
20260505192931 80 178 5.0 11.0 0.00 0.00 0.00 76 1004.2
20260505192031 80 175 5.0 12.0 0.00 0.00 0.00 76 1004.2
20260505191507 79 170 3.0 12.0 0.00 0.00 0.00 77 1004.3
20260505191132 80 173 6.0 11.0 0.00 0.00 0.00 76 1004.0
20260505190231 79 177 5.0 11.0 0.00 0.00 0.00 76 1004.4
20260505190005 79 185 5.0 11.0 0.00 0.00 0.00 77 1004.3
20260505185331 79 166 5.0 8.0 0.00 0.00 0.00 76 1003.9
20260505184608 79 171 5.0 12.0 0.00 0.00 0.00 76 1003.6
20260505184432 80 173 7.0 12.0 0.00 0.00 0.00 75 1003.7
20260505183531 79 178 7.0 16.0 0.00 0.00 0.00 77 1003.5
20260505183110 78 178 8.0 14.0 0.00 0.00 0.00 78 1003.7
20260505182631 77 170 6.0 12.0 0.00 0.00 0.00 81 1003.7
20260505181732 76 169 6.0 9.0 0.00 0.00 0.00 81 1004.6
20260505181607 76 162 5.0 13.0 0.00 0.00 0.00 80 1004.7
20260505180832 76 169 6.0 10.0 0.00 0.00 0.00 82 1004.8
20260505180004 75 161 6.0 11.0 0.00 0.00 0.00 82 1004.8
20260505175932 76 175 6.0 11.0 0.00 0.00 0.00 82 1004.8
20260505175031 75 167 6.0 11.0 0.00 0.00 0.00 82 1004.9
20260505174504 75 169 4.0 11.0 0.00 0.00 0.00 83 1004.9
20260505174131 75 177 5.0 11.0 0.00 0.00 0.00 83 1004.8
20260505173231 74 179 6.0 12.0 0.00 0.00 0.00 84 1004.8
20260505173030 74 196 5.0 12.0 0.00 0.00 0.00 83 1004.8
20260505172331 74 175 5.0 10.0 0.00 0.00 0.00 84 1004.7
20260505171504 73 194 5.0 9.0 0.00 0.00 0.00 85 1004.9
20260505171431 74 172 6.0 9.0 0.00 0.00 0.00 85 1004.9
20260505170532 73 174 6.0 11.0 0.00 0.00 0.00 85 1004.9
20260505170004 72 183 5.0 9.0 0.00 0.00 0.00 86 1005.0
20260505165632 73 182 6.0 12.0 0.00 0.00 0.00 85 1004.9
20260505164732 73 161 6.0 10.0 0.00 0.00 0.00 86 1005.0
20260505164510 72 161 6.0 10.0 0.00 0.00 0.00 87 1005.0
20260505163832 72 178 6.0 10.0 0.00 0.00 0.00 87 1005.1
20260505163106 72 200 4.0 11.0 0.00 0.00 0.00 87 1005.1
20260505162931 72 168 6.0 11.0 0.00 0.00 0.00 87 1004.8
20260505162032 72 174 6.0 11.0 0.00 0.00 0.00 88 1004.9
20260505161604 71 186 6.0 12.0 0.00 0.00 0.00 88 1004.9
20260505161131 71 168 6.0 12.0 0.00 0.00 0.00 88 1004.8
20260505160231 71 170 6.0 11.0 0.00 0.00 0.00 88 1004.9
20260505153009 70 182 6.0 10.0 0.00 0.00 0.00 88 1005.2
20260505152631 70 163 5.0 8.0 0.00 0.00 0.00 89 1005.2
20260505151732 70 165 5.0 9.0 0.00 0.00 0.00 89 1005.5
20260505151512 69 136 4.0 8.0 0.00 0.00 0.00 89 1005.5
20260505150831 70 171 6.0 10.0 0.00 0.00 0.00 89 1005.5
20260505140532 69 163 6.0 12.0 0.00 0.00 0.00 89 1005.4
20260505130231 68 169 4.0 8.0 0.00 0.00 0.00 89 1005.0
20260505130104 67 188 5.0 8.0 0.00 0.00 0.00 89 1005.0
20260505124510 67 161 4.0 8.0 0.00 0.00 0.00 88 1005.1
20260505123531 68 167 4.0 10.0 0.00 0.00 0.00 88 1005.2
20260505123005 67 171 4.0 10.0 0.00 0.00 0.00 88 1005.1
20260505122631 68 173 5.0 10.0 0.00 0.00 0.00 88 1005.0
20260505121503 67 150 3.0 7.0 0.00 0.00 0.00 87 1005.0
20260505120831 68 168 5.0 8.0 0.00 0.00 0.00 87 1004.9
20260505120106 68 182 4.0 9.0 0.00 0.00 0.00 86 1004.7
20260505115031 68 175 3.0 6.0 0.00 0.00 0.00 86 1004.8
20260505114603 67 167 3.0 7.0 0.00 0.00 0.00 86 1004.8
20260505114131 68 174 4.0 8.0 0.00 0.00 0.00 86 1004.8
20260505113231 68 170 5.0 9.0 0.00 0.00 0.00 86 1004.6
20260505113004 67 175 3.0 9.0 0.00 0.00 0.00 86 1004.6
20260505112331 68 176 5.0 9.0 0.00 0.00 0.00 86 1004.5
20260505111604 67 157 4.0 12.0 0.00 0.00 0.00 85 1004.4
20260505111431 68 173 5.0 9.0 0.00 0.00 0.00 85 1004.4
20260505110531 68 169 6.0 10.0 0.00 0.00 0.00 85 1004.3
20260505101605 67 163 4.0 12.0 0.00 0.00 0.00 84 1004.5
20260505101131 68 179 6.0 12.0 0.00 0.00 0.00 84 1004.4
20260505100231 68 176 5.0 10.0 0.00 0.00 0.00 84 1004.4
20260505100105 67 192 7.0 9.0 0.00 0.00 0.00 84 1004.4
20260505095331 68 173 5.0 11.0 0.00 0.00 0.00 84 1004.3
20260505094607 67 173 4.0 11.0 0.00 0.00 0.00 83 1004.5
20260505093531 68 166 6.0 11.0 0.00 0.00 0.00 83 1004.5
20260505093112 67 163 6.0 11.0 0.00 0.00 0.00 83 1004.5
20260505092631 68 169 5.0 9.0 0.00 0.00 0.00 83 1004.5
20260505091731 68 176 6.0 11.0 0.00 0.00 0.00 83 1004.7
20260505091509 67 154 5.0 11.0 0.00 0.00 0.00 83 1004.9
20260505090831 68 173 6.0 11.0 0.00 0.00 0.00 83 1004.8
20260505085931 68 174 8.0 15.0 0.00 0.00 0.00 82 1004.8
20260505084506 67 173 4.0 14.0 0.00 0.00 0.00 82 1004.9
20260505083231 67 164 7.0 14.0 0.00 0.00 0.00 83 1004.7
20260505083005 67 165 8.0 14.0 0.00 0.00 0.00 82 1004.8
20260505082331 67 168 6.0 13.0 0.00 0.00 0.00 82 1004.8
20260505081504 67 174 8.0 13.0 0.00 0.00 0.00 82 1005.0
20260505081431 67 163 5.0 13.0 0.00 0.00 0.00 82 1005.0
20260505080531 67 161 6.0 10.0 0.00 0.00 0.00 82 1005.1
20260505080005 67 173 7.0 10.0 0.00 0.00 0.00 82 1005.2
20260505074731 67 160 5.0 10.0 0.00 0.00 0.00 82 1005.2
20260505074613 67 167 6.0 8.0 0.00 0.00 0.00 82 1005.2
20260505073831 67 167 5.0 9.0 0.00 0.00 0.00 81 1005.3
20260505073004 67 137 5.0 9.0 0.00 0.00 0.00 81 1005.5
20260505072031 68 153 4.0 11.0 0.00 0.00 0.00 80 1005.5
20260505071505 67 163 4.0 10.0 0.00 0.00 0.00 80 1005.7
20260505071131 68 159 5.0 8.0 0.00 0.00 0.00 80 1005.7
20260505070104 67 160 4.0 8.0 0.00 0.00 0.00 79 1005.9
20260505065331 68 159 5.0 8.0 0.00 0.00 0.00 79 1005.8
20260505064505 67 128 5.0 10.0 0.00 0.00 0.00 79 1006.1
20260505064431 68 158 5.0 10.0 0.00 0.00 0.00 79 1005.9
20260505063531 68 158 4.0 7.0 0.00 0.00 0.00 78 1006.1
20260505063005 67 165 4.0 8.0 0.00 0.00 0.00 78 1006.3
20260505062631 68 161 4.0 7.0 0.00 0.00 0.00 78 1006.1